Current Weather Conditions: station 62114

sailwx.info

See reports from other nearby stations

no recent reports received from weather station ID 62114

Tides Pressure Air temp Water temp Dewpoint Dewpoint depression Visibility Wind speed Wind direction Waves Ship positions
date/time (UTC)wind fromknots sea level pressurealtimeterstation pressurevisibilityair tempwater tempwave heightnotes
2014-Oct-21 02:00 170 27 11.3
2014-Oct-21 01:00 170 24 11.6
2014-Oct-21 00:00 180 24 11.6
2014-Oct-20 23:00 200 24 11.7
2014-Oct-20 22:00 190 22 11.8
2014-Oct-20 21:00 190 19 11.6
2014-Oct-20 20:00 200 20 11.7
2014-Oct-20 19:00 200 20 11.7
2014-Oct-20 18:00 200 15 11.6
2014-Oct-20 17:00 200 15 11.4
2014-Oct-20 16:00 200 15 11.4
2014-Oct-20 15:00 210 14 11.3
2014-Oct-20 14:00 230 15 11.3
2014-Oct-20 13:00 230 14 11.2
2014-Oct-20 12:00 230 15 11.1
2014-Oct-20 11:00 240 14 11.1
2014-Oct-20 10:00 250 17 11.1
2014-Oct-20 09:00 250 17 11.1
2014-Oct-20 08:00 260 20 11.0
2014-Oct-20 07:00 260 19 11.0
2014-Oct-20 06:00 270 22 10.9
2014-Oct-20 05:00 260 25 11.0
2014-Oct-20 03:00 270 31 11.1
2014-Oct-20 02:00 270 30 11.2
2014-Oct-20 01:00 260 30 11.4
2014-Oct-20 00:00 260 32 11.5
2014-Oct-19 23:00 250 32 11.6
2014-Oct-19 22:00 250 34 11.7
2014-Oct-19 21:00 250 26 12.0
2014-Oct-19 20:00 250 27 12.2
2014-Oct-19 19:00 250 30 12.2
2014-Oct-19 18:00 250 27 12.4
2014-Oct-19 17:00 250 27 11.7
2014-Oct-19 16:00 210 27 13.0
2014-Oct-19 15:00 210 27 13.0
2014-Oct-19 14:00 210 29 13.1
2014-Oct-19 13:00 200 27 13.0
2014-Oct-19 12:00 200 29 12.8
2014-Oct-19 11:00 190 32 13.1
2014-Oct-19 10:00 180 31 13.2
2014-Oct-19 09:00 190 33 13.1
2014-Oct-19 08:00 180 33 13.1
2014-Oct-19 07:00 180 30 13.0
2014-Oct-19 06:00 180 30 12.8
2014-Oct-19 05:00 180 30 13.0
2014-Oct-19 04:00 180 30 13.0
2014-Oct-19 03:00 190 31 13.1